TimeCST,TemperatureF,Dew PointF,Humidity,Sea Level PressureIn,VisibilityMPH,Wind Direction,Wind SpeedMPH,Gust SpeedMPH,PrecipitationIn,Events,Conditions,WindDirDegrees,DateUTC
12:53 AM,66.0,64.0,93,30.10,10.0,SSE,10.4,-,N/A,,Clear,160,2013-01-26 06:53:00
1:53 AM,64.9,63.0,93,30.11,10.0,SSE,6.9,-,N/A,,Scattered Clouds,160,2013-01-26 07:53:00
2:53 AM,64.9,64.0,97,30.09,10.0,SSE,10.4,-,N/A,,Partly Cloudy,160,2013-01-26 08:53:00
3:53 AM,64.0,63.0,96,30.09,10.0,SSE,10.4,-,N/A,,Clear,150,2013-01-26 09:53:00
4:53 AM,64.0,62.1,93,30.08,10.0,SSE,11.5,-,N/A,,Clear,150,2013-01-26 10:53:00
5:53 AM,63.0,61.0,93,30.09,10.0,SSE,9.2,-,N/A,,Clear,160,2013-01-26 11:53:00
6:53 AM,63.0,61.0,93,30.10,10.0,SSE,9.2,-,N/A,,Clear,160,2013-01-26 12:53:00
7:53 AM,63.0,62.1,97,30.11,10.0,SSE,4.6,-,N/A,,Clear,160,2013-01-26 13:53:00
8:53 AM,69.1,64.9,87,30.13,10.0,SSE,9.2,-,N/A,,Clear,160,2013-01-26 14:53:00
9:53 AM,73.0,64.0,73,30.14,10.0,South,15.0,-,N/A,,Scattered Clouds,170,2013-01-26 15:53:00
10:53 AM,77.0,61.0,58,30.14,10.0,South,16.1,-,N/A,,Scattered Clouds,170,2013-01-26 16:53:00
11:53 AM,80.1,60.1,50,30.12,10.0,SSE,19.6,24.2,N/A,,Clear,160,2013-01-26 17:53:00
12:53 PM,81.0,60.1,49,30.09,10.0,South,16.1,25.3,N/A,,Clear,170,2013-01-26 18:53:00
1:53 PM,81.0,59.0,47,30.06,10.0,SE,15.0,23.0,N/A,,Clear,140,2013-01-26 19:53:00
2:53 PM,80.1,57.9,47,30.05,10.0,SE,17.3,-,N/A,,Clear,140,2013-01-26 20:53:00
3:53 PM,79.0,55.0,44,30.04,10.0,SE,21.9,-,N/A,,Clear,130,2013-01-26 21:53:00
4:53 PM,75.9,60.1,58,30.04,10.0,SE,19.6,-,N/A,,Clear,140,2013-01-26 22:53:00
5:53 PM,73.0,62.1,68,30.05,10.0,SE,13.8,-,N/A,,Clear,140,2013-01-26 23:53:00
6:53 PM,70.0,62.1,76,30.06,10.0,ESE,8.1,-,N/A,,Partly Cloudy,120,2013-01-27 00:53:00
7:53 PM,68.0,62.1,81,30.06,10.0,ESE,8.1,-,N/A,,Clear,120,2013-01-27 01:53:00
8:53 PM,68.0,64.0,87,30.08,10.0,ESE,8.1,-,N/A,,Clear,110,2013-01-27 02:53:00
9:53 PM,69.1,66.0,90,30.09,10.0,ESE,9.2,-,N/A,,Mostly Cloudy,120,2013-01-27 03:53:00
10:53 PM,69.1,66.0,90,30.10,10.0,SE,9.2,-,N/A,,Scattered Clouds,130,2013-01-27 04:53:00
11:53 PM,69.1,66.0,90,30.09,10.0,SE,9.2,-,N/A,,Scattered Clouds,130,2013-01-27 05:53:00